| time (UTC) | temp C | wind direction | speed KPH | gust KPH | rain 1hr cm | rain 24hr cm | rain mn cm | humidity % | barometer mb |
| 20260507123039 | 15 | 35 | 4.8 | 12.9 | 0.00 | 0.00 | 0.00 | 83 | 1010.0 |
| 20260507121539 | 15 | 25 | 3.2 | 8.0 | 0.00 | 0.00 | 0.00 | 84 | 1010.0 |
| 20260507120035 | 15 | 35 | 1.6 | 6.4 | 0.00 | 0.00 | 0.00 | 85 | 1010.1 |
| 20260507114535 | 15 | 5 | 1.6 | 6.4 | 0.00 | 0.00 | 0.00 | 85 | 1010.2 |
| 20260507113035 | 15 | 13 | 3.2 | 9.7 | 0.00 | 0.00 | 0.00 | 84 | 1010.2 |
| 20260507111534 | 15 | 5 | 3.2 | 8.0 | 0.00 | 0.00 | 0.00 | 84 | 1010.0 |
| 20260507110032 | 15 | 49 | 3.2 | 6.4 | 0.00 | 0.00 | 0.00 | 84 | 1009.9 |
| 20260507104530 | 14 | 49 | 0.0 | 4.8 | 0.00 | 0.00 | 0.00 | 83 | 1010.0 |
| 20260507103029 | 14 | 50 | 0.0 | 1.6 | 0.00 | 0.00 | 0.00 | 82 | 1009.9 |
| 20260507101527 | 14 | 49 | 1.6 | 4.8 | 0.00 | 0.00 | 0.00 | 83 | 1009.8 |
| 20260507100034 | 14 | 50 | 0.0 | 0.0 | 0.00 | 0.00 | 0.00 | 83 | 1009.8 |
| 20260507094521 | 13 | 49 | 0.0 | 6.4 | 0.00 | 0.00 | 0.00 | 84 | 1009.8 |
| 20260507093019 | 13 | 55 | 0.0 | 0.0 | 0.00 | 0.00 | 0.00 | 86 | 1010.0 |
| 20260507091522 | 13 | 55 | 0.0 | 3.2 | 0.00 | 0.00 | 0.00 | 87 | 1010.1 |
| 20260507090015 | 13 | 49 | 0.0 | 1.6 | 0.00 | 0.00 | 0.00 | 88 | 1010.2 |
| 20260507084515 | 13 | 51 | 0.0 | 4.8 | 0.00 | 0.00 | 0.00 | 89 | 1010.4 |
| 20260507083013 | 12 | 54 | 0.0 | 4.8 | 0.00 | 0.00 | 0.00 | 90 | 1010.3 |
| 20260507081512 | 12 | 82 | 0.0 | 1.6 | 0.00 | 0.00 | 0.00 | 92 | 1010.4 |
| 20260507080010 | 11 | 82 | 0.0 | 3.2 | 0.00 | 0.00 | 0.00 | 92 | 1010.5 |
| 20260507074509 | 11 | 82 | 0.0 | 3.2 | 0.00 | 0.00 | 0.00 | 93 | 1010.6 |
| 20260507073009 | 11 | 82 | 0.0 | 1.6 | 0.00 | 0.00 | 0.00 | 93 | 1010.6 |
| 20260507071511 | 11 | 82 | 0.0 | 3.2 | 0.00 | 0.00 | 0.00 | 94 | 1010.6 |
| 20260507070010 | 11 | 82 | 0.0 | 0.0 | 0.00 | 0.03 | 0.00 | 94 | 1010.8 |
| 20260507064505 | 11 | 82 | 0.0 | 0.0 | 0.00 | 0.03 | 0.00 | 94 | 1010.8 |
| 20260507063004 | 10 | 82 | 0.0 | 0.0 | 0.00 | 0.03 | 0.00 | 94 | 1010.8 |
| 20260507061504 | 10 | 82 | 0.0 | 0.0 | 0.00 | 0.03 | 0.00 | 95 | 1010.8 |
| 20260507060003 | 10 | 82 | 0.0 | 0.0 | 0.00 | 0.15 | 0.00 | 95 | 1010.9 |
| 20260507054501 | 10 | 82 | 0.0 | 0.0 | 0.00 | 0.15 | 0.00 | 94 | 1010.9 |
| 20260507053110 | 10 | 82 | 0.0 | 0.0 | 0.00 | 0.15 | 0.00 | 94 | 1010.8 |
| 20260507051608 | 10 | 82 | 0.0 | 0.0 | 0.00 | 0.15 | 0.00 | 94 | 1010.8 |
| 20260507050058 | 10 | 82 | 0.0 | 0.0 | 0.00 | 0.15 | 0.00 | 94 | 1010.8 |
| 20260507044559 | 10 | 82 | 0.0 | 0.0 | 0.00 | 0.18 | 0.00 | 94 | 1011.0 |
| 20260507043057 | 10 | 82 | 0.0 | 0.0 | 0.00 | 0.18 | 0.00 | 94 | 1011.1 |
| 20260507041554 | 10 | 82 | 0.0 | 0.0 | 0.00 | 0.18 | 0.00 | 94 | 1011.4 |
| 20260507040053 | 10 | 82 | 0.0 | 0.0 | 0.00 | 0.18 | 0.00 | 94 | 1011.5 |
| 20260507034552 | 10 | 82 | 0.0 | 0.0 | 0.00 | 0.18 | 0.00 | 94 | 1011.5 |
| 20260507033052 | 10 | 82 | 0.0 | 0.0 | 0.00 | 0.18 | 0.00 | 94 | 1011.5 |
| 20260507031551 | 10 | 82 | 0.0 | 0.0 | 0.00 | 0.18 | 0.00 | 94 | 1011.5 |
| 20260507030051 | 10 | 82 | 0.0 | 0.0 | 0.00 | 0.18 | 0.00 | 93 | 1011.5 |
| 20260507024549 | 10 | 82 | 0.0 | 0.0 | 0.00 | 0.18 | 0.00 | 93 | 1011.5 |
| 20260507023047 | 11 | 82 | 0.0 | 0.0 | 0.00 | 0.18 | 0.00 | 93 | 1011.7 |
| 20260507021545 | 11 | 82 | 0.0 | 0.0 | 0.00 | 0.18 | 0.00 | 92 | 1011.7 |
| 20260507020100 | 11 | 82 | 0.0 | 0.0 | 0.00 | 0.18 | 0.00 | 92 | 1011.8 |
| 20260507014642 | 11 | 82 | 0.0 | 0.0 | 0.00 | 0.18 | 0.00 | 92 | 1011.8 |
| 20260507013041 | 11 | 82 | 0.0 | 0.0 | 0.00 | 0.18 | 0.00 | 92 | 1011.9 |
| 20260507011540 | 11 | 82 | 0.0 | 0.0 | 0.00 | 0.18 | 0.00 | 91 | 1012.1 |
| 20260507010055 | 11 | 82 | 0.0 | 0.0 | 0.00 | 0.18 | 0.00 | 91 | 1012.2 |
| 20260507004536 | 12 | 82 | 0.0 | 0.0 | 0.00 | 0.18 | 0.00 | 91 | 1012.3 |
| 20260507003034 | 12 | 82 | 0.0 | 1.6 | 0.00 | 0.18 | 0.00 | 90 | 1012.3 |
| 20260507001533 | 12 | 82 | 0.0 | 1.6 | 0.00 | 0.18 | 0.00 | 90 | 1012.5 |
| 20260507000031 | 12 | 82 | 0.0 | 0.0 | 0.00 | 0.18 | 0.00 | 89 | 1012.5 |
| 20260506234531 | 12 | 82 | 0.0 | 0.0 | 0.00 | 0.18 | 0.00 | 89 | 1012.6 |
| 20260506233028 | 12 | 82 | 0.0 | 0.0 | 0.00 | 0.18 | 0.00 | 89 | 1012.6 |
| 20260506231526 | 12 | 82 | 0.0 | 1.6 | 0.00 | 0.18 | 0.00 | 89 | 1012.8 |
| 20260506230028 | 12 | 82 | 0.0 | 1.6 | 0.00 | 0.18 | 0.00 | 89 | 1012.7 |
| 20260506224523 | 12 | 82 | 0.0 | 1.6 | 0.00 | 0.18 | 0.00 | 88 | 1012.9 |
| 20260506223021 | 12 | 82 | 0.0 | 1.6 | 0.00 | 0.18 | 0.00 | 88 | 1013.1 |
| 20260506221519 | 12 | 82 | 0.0 | 0.0 | 0.00 | 0.18 | 0.00 | 88 | 1013.2 |
| 20260506220133 | 12 | 82 | 0.0 | 1.6 | 0.00 | 0.18 | 0.00 | 88 | 1013.5 |
| 20260506214538 | 12 | 80 | 0.0 | 1.6 | 0.00 | 0.18 | 0.18 | 88 | 1013.5 |
| 20260506213038 | 12 | 80 | 0.0 | 3.2 | 0.00 | 0.18 | 0.18 | 88 | 1013.5 |
| 20260506211536 | 12 | 80 | 0.0 | 3.2 | 0.00 | 0.18 | 0.18 | 88 | 1013.6 |
| 20260506210035 | 12 | 79 | 0.0 | 1.6 | 0.00 | 0.18 | 0.18 | 87 | 1013.6 |
| 20260506204536 | 12 | 72 | 0.0 | 3.2 | 0.00 | 0.18 | 0.18 | 86 | 1013.5 |
| 20260506203033 | 13 | 73 | 0.0 | 1.6 | 0.00 | 0.18 | 0.18 | 86 | 1013.4 |
| 20260506201538 | 13 | 73 | 0.0 | 3.2 | 0.00 | 0.18 | 0.18 | 84 | 1013.2 |
| 20260506200031 | 13 | 72 | 0.0 | 1.6 | 0.00 | 0.18 | 0.18 | 83 | 1013.2 |
| 20260506194531 | 13 | 72 | 0.0 | 4.8 | 0.00 | 0.18 | 0.18 | 82 | 1013.3 |
| 20260506193031 | 13 | 69 | 0.0 | 1.6 | 0.00 | 0.18 | 0.18 | 83 | 1013.5 |
| 20260506191530 | 13 | 67 | 1.6 | 6.4 | 0.00 | 0.18 | 0.18 | 83 | 1013.5 |
| 20260506190031 | 13 | 85 | 0.0 | 1.6 | 0.00 | 0.18 | 0.18 | 83 | 1013.4 |
| 20260506184532 | 14 | 79 | 1.6 | 4.8 | 0.00 | 0.18 | 0.18 | 83 | 1013.3 |
| 20260506183026 | 14 | 78 | 0.0 | 6.4 | 0.00 | 0.18 | 0.18 | 82 | 1013.4 |
| 20260506181526 | 14 | 78 | 1.6 | 6.4 | 0.00 | 0.18 | 0.18 | 80 | 1013.5 |
| 20260506180031 | 15 | 85 | 1.6 | 4.8 | 0.00 | 0.18 | 0.18 | 79 | 1013.6 |
| 20260506174528 | 15 | 174 | 0.0 | 4.8 | 0.00 | 0.18 | 0.18 | 80 | 1013.6 |
| 20260506173024 | 13 | 42 | 0.0 | 8.0 | 0.00 | 0.18 | 0.18 | 83 | 1013.6 |
| 20260506171534 | 13 | 42 | 1.6 | 8.0 | 0.00 | 0.18 | 0.18 | 83 | 1013.7 |
| 20260506170020 | 14 | 38 | 3.2 | 9.7 | 0.00 | 0.18 | 0.18 | 82 | 1013.7 |
| 20260506164523 | 14 | 38 | 1.6 | 6.4 | 0.00 | 0.18 | 0.18 | 80 | 1013.9 |
| 20260506163019 | 14 | 38 | 0.0 | 4.8 | 0.00 | 0.18 | 0.18 | 78 | 1013.8 |
| 20260506161518 | 14 | 37 | 3.2 | 9.7 | 0.00 | 0.18 | 0.18 | 79 | 1013.8 |
| 20260506160020 | 13 | 355 | 1.6 | 12.9 | 0.00 | 0.18 | 0.18 | 80 | 1013.8 |
| 20260506154519 | 14 | 13 | 3.2 | 6.4 | 0.00 | 0.18 | 0.18 | 82 | 1013.9 |
| 20260506153015 | 14 | 344 | 4.8 | 12.9 | 0.00 | 0.18 | 0.18 | 82 | 1013.9 |
| 20260506151521 | 14 | 44 | 3.2 | 9.7 | 0.00 | 0.18 | 0.18 | 77 | 1014.0 |
| 20260506150013 | 15 | 57 | 3.2 | 8.0 | 0.00 | 0.18 | 0.18 | 76 | 1014.2 |
| 20260506144511 | 15 | 24 | 3.2 | 9.7 | 0.00 | 0.18 | 0.18 | 77 | 1014.2 |
| 20260506143011 | 15 | 22 | 3.2 | 9.7 | 0.00 | 0.18 | 0.18 | 78 | 1014.4 |
| 20260506141510 | 15 | 40 | 3.2 | 9.7 | 0.00 | 0.18 | 0.18 | 76 | 1014.3 |
| 20260506140017 | 15 | 33 | 4.8 | 8.0 | 0.00 | 0.18 | 0.18 | 77 | 1014.7 |
| 20260506134510 | 15 | 343 | 3.2 | 11.3 | 0.00 | 0.18 | 0.18 | 78 | 1014.6 |
| 20260506133012 | 15 | 25 | 3.2 | 8.0 | 0.00 | 0.18 | 0.18 | 74 | 1014.8 |
| 20260506131507 | 15 | 19 | 0.0 | 6.4 | 0.00 | 0.18 | 0.18 | 77 | 1014.8 |
| 20260506130004 | 15 | 17 | 0.0 | 3.2 | 0.00 | 0.18 | 0.18 | 79 | 1014.9 |
| 20260506124505 | 15 | 24 | 1.6 | 6.4 | 0.00 | 0.18 | 0.18 | 79 | 1014.9 |